Weather History for PAPG - October, 2010

Change the Weather History Date:

Tuesday, October 12, 2010

  Actual Average Record
Temperature  
Mean Temperature 48 °F -  
Max Temperature 51 °F 46 °F 60 °F (2000)
Min Temperature 44 °F 38 °F 26 °F (1997)
Degree Days  
Heating Degree Days 18    
Moisture  
Dew Point 40 °F    
Average Humidity 75    
Maximum Humidity 82    
Minimum Humidity 62    
Precipitation  
Precipitation 0.00 in - - ()
Sea Level Pressure  
Sea Level Pressure 29.64 in    
Wind  
Wind Speed 10 mph (ENE)    
Max Wind Speed 24 mph    
Max Gust Speed 37 mph    
Visibility 10 miles    
Events      
Averages and records for this station are not official NWS values.
T = Trace of Precipitation, MM = Missing Value Source: NWS Daily Summary

Daily Weather History Graph

Daily Weather History Graph

Search for Another Location

Airport or City:

Trip Planner

Search our weather history database for the weather conditions in past years. The results will help you decide how hot, cold, wet, or windy it might be!

Date:

Astronomy

Oct. 12, 2010 Rise Set
Actual Time 7:18 AM AKDT 5:56 PM AKDT
Civil Twilight 6:40 AM AKDT 6:35 PM AKDT
Nautical Twilight 5:56 AM AKDT 7:18 PM AKDT
Astronomical Twilight 5:11 AM AKDT 8:03 PM AKDT
Moon 2:07 PM AKDT (10/12) 8:33 PM AKDT (10/12)
Length of Visible Light 11h 54m
Length of Day
10h 38m
Waxing Crescent, 30% of the Moon is Illuminated
Oct 12
Waxing Crescent
Oct 14
First Quarter
Oct 22
Full
Oct 30
Last Quarter
Nov 5
New

Hourly Weather History & Observations

Time (AKDT) Temp. Windchill Dew Point Humidity Pressure Visibility Wind Dir Wind Speed Gust Speed Precip Events Conditions
12:16 AM 46.4 °F 45.2 °F 39.2 °F 76% 29.85 in 10.0 mi NE 3.5 mph - N/A   Mostly Cloudy
12:36 AM 46.4 °F 41.1 °F 39.2 °F 76% 29.84 in 10.0 mi ESE 11.5 mph 17.3 mph N/A   Overcast
12:56 AM 46.4 °F 41.1 °F 39.2 °F 76% 29.83 in 10.0 mi ENE 11.5 mph 16.1 mph N/A   Overcast
1:16 AM 46.4 °F 40.7 °F 39.2 °F 76% 29.82 in 10.0 mi East 12.7 mph 23.0 mph N/A   Overcast
1:36 AM 46.4 °F 41.5 °F 39.2 °F 76% 29.82 in 10.0 mi East 10.4 mph 19.6 mph N/A   Overcast
1:56 AM 44.6 °F 39.2 °F 39.2 °F 81% 29.82 in 9.0 mi East 10.4 mph 20.7 mph N/A   Overcast
2:16 AM 44.6 °F 39.7 °F 39.2 °F 81% 29.81 in 10.0 mi ENE 9.2 mph - N/A   Overcast
2:36 AM 44.6 °F 39.7 °F 39.2 °F 81% 29.79 in 10.0 mi East 9.2 mph 18.4 mph N/A   Overcast
2:56 AM 44.6 °F 39.2 °F 39.2 °F 81% 29.77 in 10.0 mi ENE 10.4 mph - N/A   Overcast
3:16 AM 44.6 °F 42.2 °F 39.2 °F 81% 29.76 in 9.0 mi NE 4.6 mph - N/A   Overcast
3:36 AM 44.6 °F 41.4 °F 39.2 °F 81% 29.74 in 9.0 mi ENE 5.8 mph - N/A   Overcast
3:56 AM 44.6 °F 41.4 °F 39.2 °F 81% 29.73 in 10.0 mi East 5.8 mph - N/A   Overcast
4:16 AM 44.6 °F 39.2 °F 39.2 °F 81% 29.71 in 10.0 mi East 10.4 mph - N/A   Overcast
4:36 AM 44.6 °F 38.1 °F 39.2 °F 81% 29.69 in 10.0 mi East 13.8 mph 18.4 mph N/A   Overcast
4:56 AM 44.6 °F 40.2 °F 39.2 °F 81% 29.68 in 10.0 mi ENE 8.1 mph 19.6 mph N/A   Overcast
5:16 AM 44.6 °F 39.7 °F 39.2 °F 81% 29.67 in 10.0 mi ENE 9.2 mph 17.3 mph N/A   Overcast
5:36 AM 44.6 °F 38.1 °F 39.2 °F 81% 29.65 in 10.0 mi ENE 13.8 mph 20.7 mph N/A   Overcast
5:56 AM 44.6 °F 37.8 °F 39.2 °F 81% 29.63 in 10.0 mi ENE 15.0 mph 19.6 mph N/A   Overcast
6:16 AM 44.6 °F 37.8 °F 39.2 °F 81% 29.60 in 10.0 mi East 15.0 mph 21.9 mph N/A   Overcast
6:36 AM 44.6 °F 39.7 °F 39.2 °F 81% 29.58 in 10.0 mi ENE 9.2 mph 20.7 mph N/A   Overcast
6:56 AM 46.4 °F 40.4 °F 39.2 °F 76% 29.54 in 10.0 mi ENE 13.8 mph 23.0 mph N/A   Overcast
7:16 AM 46.4 °F 39.5 °F 39.2 °F 76% 29.50 in 10.0 mi ENE 17.3 mph 26.5 mph N/A   Overcast
7:36 AM 46.4 °F 41.1 °F 39.2 °F 76% 29.48 in 10.0 mi ENE 11.5 mph 23.0 mph N/A   Overcast
7:56 AM 46.4 °F 40.7 °F 39.2 °F 76% 29.46 in 10.0 mi ENE 12.7 mph 18.4 mph N/A   Overcast
8:16 AM 46.4 °F 40.1 °F 39.2 °F 76% 29.43 in 10.0 mi ENE 15.0 mph 25.3 mph N/A   Overcast
8:36 AM 46.4 °F 38.7 °F 39.2 °F 76% 29.42 in 10.0 mi NE 20.7 mph 31.1 mph N/A   Overcast
8:56 AM 48.2 °F - 39.2 °F 71% 29.40 in 10.0 mi NE 12.7 mph 33.4 mph N/A   Overcast
9:16 AM 48.2 °F - 39.2 °F 71% 29.38 in 10.0 mi ENE 19.6 mph 32.2 mph N/A   Overcast
9:36 AM 48.2 °F - 41.0 °F 76% 29.36 in 10.0 mi NE 18.4 mph 31.1 mph N/A   Overcast
9:56 AM 48.2 °F - 41.0 °F 76% 29.38 in 10.0 mi ENE 17.3 mph 27.6 mph N/A   Overcast
10:16 AM 48.2 °F - 42.8 °F 82% 29.37 in 10.0 mi ENE 16.1 mph 36.8 mph N/A   Overcast
10:36 AM 48.2 °F - 42.8 °F 82% 29.35 in 10.0 mi NE 24.2 mph 33.4 mph N/A   Overcast
10:56 AM 48.2 °F - 42.8 °F 82% 29.37 in 5.0 mi NE 17.3 mph 36.8 mph N/A   Overcast
11:16 AM 48.2 °F - 42.8 °F 82% 29.40 in 3.0 mi Calm Calm - N/A   Overcast
11:36 AM 48.2 °F - 42.8 °F 82% 29.45 in 7.0 mi East 12.7 mph 20.7 mph N/A   Overcast
11:56 AM 51.8 °F - 42.8 °F 71% 29.45 in 10.0 mi NNE 5.8 mph 27.6 mph N/A   Mostly Cloudy
12:16 PM 51.8 °F - 42.8 °F 71% 29.48 in 10.0 mi East 15.0 mph 25.3 mph N/A   Mostly Cloudy
12:36 PM 51.8 °F - 41.0 °F 67% 29.50 in 10.0 mi East 11.5 mph 19.6 mph N/A   Mostly Cloudy
12:56 PM 51.8 °F - 39.2 °F 62% 29.51 in 10.0 mi NNW 11.5 mph 23.0 mph N/A   Overcast
1:16 PM 51.8 °F - 39.2 °F 62% 29.53 in 10.0 mi East 16.1 mph 29.9 mph N/A   Overcast
1:36 PM 51.8 °F - 39.2 °F 62% 29.55 in 10.0 mi NE 12.7 mph 23.0 mph N/A   Mostly Cloudy
1:56 PM 48.2 °F - 39.2 °F 71% 29.57 in 10.0 mi NNE 8.1 mph 28.8 mph N/A   Overcast
2:16 PM 48.2 °F - 41.0 °F 76% 29.58 in 10.0 mi North 12.7 mph 18.4 mph N/A   Overcast
2:36 PM 48.2 °F - 39.2 °F 71% 29.60 in 10.0 mi ENE 8.1 mph 32.2 mph N/A   Overcast
2:56 PM 48.2 °F - 39.2 °F 71% 29.62 in 5.0 mi East 6.9 mph 17.3 mph N/A   Overcast
3:16 PM 48.2 °F - 39.2 °F 71% 29.64 in 5.0 mi East 8.1 mph 17.3 mph N/A   Overcast
3:36 PM 48.2 °F - 39.2 °F 71% 29.66 in 5.0 mi NE 5.8 mph 20.7 mph N/A   Overcast
3:56 PM 48.2 °F - 41.0 °F 76% 29.67 in 10.0 mi Calm Calm - N/A   Overcast
4:16 PM 48.2 °F - 39.2 °F 71% 29.67 in 10.0 mi ESE 4.6 mph 23.0 mph N/A   Overcast
4:36 PM 48.2 °F - 39.2 °F 71% 29.69 in 10.0 mi North 11.5 mph 28.8 mph N/A   Overcast
4:56 PM 48.2 °F - 37.4 °F 66% 29.70 in 10.0 mi NW 5.8 mph 19.6 mph N/A   Mostly Cloudy
5:16 PM 48.2 °F - 37.4 °F 66% 29.71 in 10.0 mi East 6.9 mph 21.9 mph N/A   Mostly Cloudy
5:36 PM 48.2 °F - 37.4 °F 66% 29.72 in 10.0 mi ESE 6.9 mph 23.0 mph N/A   Mostly Cloudy
5:56 PM 48.2 °F - 37.4 °F 66% 29.73 in 10.0 mi East 8.1 mph 16.1 mph N/A   Overcast
6:16 PM 48.2 °F - 37.4 °F 66% 29.75 in 10.0 mi SSW 8.1 mph 19.6 mph N/A   Overcast
6:36 PM 48.2 °F - 37.4 °F 66% 29.76 in 10.0 mi East 5.8 mph - N/A   Overcast
7:16 PM 48.2 °F - 37.4 °F 66% 29.77 in 10.0 mi South 9.2 mph 16.1 mph N/A   Overcast
7:36 PM 46.4 °F 41.9 °F 39.2 °F 76% 29.79 in 10.0 mi East 9.2 mph 19.6 mph N/A   Overcast
7:56 PM 46.4 °F 42.9 °F 39.2 °F 76% 29.80 in 10.0 mi North 6.9 mph - N/A   Overcast
8:16 PM 46.4 °F 44.3 °F 39.2 °F 76% 29.81 in 10.0 mi NNE 4.6 mph 21.9 mph N/A   Overcast
8:36 PM 46.4 °F - 39.2 °F 76% 29.82 in 10.0 mi Calm Calm - N/A   Overcast
8:56 PM 46.4 °F - 39.2 °F 76% 29.83 in 10.0 mi Calm Calm - N/A   Overcast
9:16 PM 46.4 °F 42.4 °F 39.2 °F 76% 29.84 in 10.0 mi East 8.1 mph - N/A   Overcast
9:36 PM 46.4 °F 45.2 °F 39.2 °F 76% 29.85 in 10.0 mi ESE 3.5 mph - N/A   Overcast
9:56 PM 46.4 °F 42.9 °F 39.2 °F 76% 29.85 in 10.0 mi East 6.9 mph - N/A   Overcast
10:16 PM 48.2 °F - 37.4 °F 66% 29.87 in 10.0 mi ESE 6.9 mph - N/A   Overcast
10:36 PM 48.2 °F - 37.4 °F 66% 29.88 in 10.0 mi East 3.5 mph - N/A   Overcast
10:56 PM 48.2 °F - 35.6 °F 62% 29.89 in 10.0 mi WNW 8.1 mph - N/A   Overcast
11:16 PM 48.2 °F - 35.6 °F 62% 29.91 in 10.0 mi NE 5.8 mph - N/A   Overcast
11:36 PM 48.2 °F - 35.6 °F 62% 29.91 in 10.0 mi North 4.6 mph - N/A   Overcast
11:56 PM 48.2 °F - 35.6 °F 62% 29.93 in 10.0 mi Calm Calm - N/A   Overcast